Home   Weather   Manassas   Past weeks

Flag for USA Past Weather in Manassas, Virginia, USA — Yesterday and Last 2 Weeks

Now
68 °F

Mostly cloudy.


Feels Like: 68 °F
Forecast: 67 / 71 °F
Wind: 8 mph from Southeast

Location: Manassas Municipal

Current Time: Sep 29, 2016 at 4:37:12 AM

Latest Report: Sep 29, 2016 at 3:55 AM


Visibility: 10 mi

Pressure: 30.03 "Hg

Humidity: 100%

Dew Point: 68 °F

Location of ManassasLocation

Past Weather in Manassas — Graph

°F

Manassas Temperature Yesterday

Maximum temperature yesterday: 70 °F (at 9:55 PM)
Minimum temperature yesterday: 57 °F (at 12:15 AM)
Average temperature yesterday: 66 °F

High & Low Weather Summary for the Past Weeks

 TemperatureHumidityPressure
High93 °F (Sep 14, 4:55 PM)100% (Sep 14, 3:15 AM)30.30 "Hg (Sep 14, 3:15 AM)
Low57 °F (Sep 23, 5:15 AM)24% (Sep 14, 4:55 PM)29.90 "Hg (Sep 27, 3:45 PM)
Average69 °F85%30.09 "Hg
* Reported Sep 14 3:15 AM — Sep 29 3:15 AM, Manassas, Weather by CustomWeather, © 2016

Note: Actual official high and low records may vary slightly from our data, if they occured in-between our weather recording intervals... More about our weather records

Advertising

Manassas Weather History for the Previous 24 Hours

Scroll right to see more
 ConditionsComfort  
Time TempWeatherWind HumidityBarometerVisibility
3:15 AM
Thu, Sep 29
68 °FMostly cloudy.8 mph100%30.02 "Hg8 mi
2:55 AM70 °FMostly cloudy.10 mph100%30.03 "Hg6 mi
2:35 AM70 °FMostly cloudy.10 mph100%30.02 "Hg8 mi
2:15 AM70 °FOvercast.10 mph100%30.03 "Hg9 mi
1:55 AM70 °FMostly cloudy.9 mph100%30.02 "Hg6 mi
1:35 AM70 °FOvercast.9 mph100%30.01 "Hg5 mi
1:15 AM70 °FOvercast.10 mph100%30.01 "Hg10 mi
12:55 AM70 °FMostly cloudy.10 mph100%30.00 "Hg10 mi
12:35 AM70 °FMostly cloudy.16 mph100%30.01 "Hg10 mi
12:15 AM70 °FMostly cloudy.8 mph100%30.00 "Hg10 mi
11:55 PM
Wed, Sep 28
70 °FOvercast.12 mph100%30.00 "Hg10 mi
11:35 PM70 °FOvercast.14 mph100%30.00 "Hg10 mi
11:15 PM70 °FThundershowers. Overcast.14 mph100%30.00 "Hg10 mi
10:55 PM70 °FLow clouds.13 mph100%30.00 "Hg10 mi
10:35 PM70 °FThundershowers. Low clouds.10 mph100%30.01 "Hg10 mi
10:15 PM70 °FThunderstorms. Low clouds.12 mph100%30.00 "Hg10 mi
9:55 PM70 °FMostly cloudy.8 mph100%30.00 "Hg10 mi
8:55 PM68 °FOvercast.6 mph94%30.02 "Hg7 mi
6:45 PM68 °FLight rain. Low clouds.No wind100%30.00 "Hg5 mi
5:45 PM66 °FLow clouds.No wind100%29.99 "Hg5 mi
4:45 PM68 °FOvercast.6 mph100%29.98 "Hg10 mi
3:45 PM68 °FLow clouds.5 mph100%29.99 "Hg10 mi
2:55 PM68 °FOvercast.5 mph100%29.99 "Hg10 mi
1:45 PM66 °FFog.3 mph100%30.01 "Hg5 mi
12:00 PM64 °FFog.7 mph94%30.00 "Hg2 mi
11:50 AM64 °FFog.7 mph94%30.00 "Hg2 mi
10:45 AM64 °FFog.7 mph94%30.00 "Hg10 mi
9:45 AM66 °FOvercast.7 mph94%29.99 "Hg10 mi
8:45 AM64 °FFog.5 mph100%29.97 "Hg6 mi
7:45 AM64 °FLight rain. Fog.No wind100%29.97 "Hg5 mi
6:45 AM66 °FLight rain. Fog.5 mph100%29.94 "Hg5 mi
6:15 AM66 °FLow clouds.5 mph94%29.95 "Hg4 mi
5:55 AM66 °FLow clouds.5 mph94%29.95 "Hg5 mi
5:35 AM64 °FLow clouds.3 mph100%29.95 "Hg5 mi
5:15 AM64 °FLow clouds.3 mph100%29.94 "Hg4 mi
4:55 AM64 °FLow clouds.No wind100%29.94 "Hg3 mi
4:35 AM64 °FThundershowers. Low clouds.7 mph100%29.95 "Hg4 mi
4:15 AM64 °FLow clouds.5 mph100%29.94 "Hg2 mi
Weather by CustomWeather, © 2016

See weather overviewHow to use our weather pages